Time,TemperatureF,DewpointF,PressureIn,WindDirection,WindDirectionDegrees,WindSpeedMPH,WindSpeedGustMPH,Humidity,HourlyPrecipIn,Conditions,Clouds,dailyrainin,SoftwareType,DateUTC
2013-03-21 00:12:00,27.6,11.0,30.17,NW,321,3.0,6.0,49,0.00,,,0.00,weatherlink.com 1.10,2013-03-21 05:12:00,
2013-03-21 00:27:00,27.1,11.0,30.17,NW,320,3.0,4.0,50,0.00,,,0.00,weatherlink.com 1.10,2013-03-21 05:27:00,
2013-03-21 00:42:00,26.4,12.0,30.16,NW,320,0.0,1.0,55,0.00,,,0.00,weatherlink.com 1.10,2013-03-21 05:42:00,
2013-03-21 00:57:00,24.4,13.0,30.16,NW,320,1.0,2.0,62,0.00,,,0.00,weatherlink.com 1.10,2013-03-21 05:57:00,
2013-03-21 01:12:00,24.7,12.0,30.15,NW,320,0.0,2.0,58,0.00,,,0.00,weatherlink.com 1.10,2013-03-21 06:12:00,
2013-03-21 01:27:00,24.8,13.0,30.15,NW,320,2.0,2.0,62,0.00,,,0.00,weatherlink.com 1.10,2013-03-21 06:27:00,
2013-03-21 01:42:00,24.1,13.0,30.14,NW,320,0.0,2.0,62,0.00,,,0.00,weatherlink.com 1.10,2013-03-21 06:42:00,
2013-03-21 01:57:00,24.6,12.0,30.14,NW,320,0.0,0.0,59,0.00,,,0.00,weatherlink.com 1.10,2013-03-21 06:57:00,
2013-03-21 02:12:00,25.5,12.0,30.14,NW,320,0.0,0.0,57,0.00,,,0.00,weatherlink.com 1.10,2013-03-21 07:12:00,
2013-03-21 02:27:00,26.2,11.0,30.14,NW,320,2.0,3.0,52,0.00,,,0.00,weatherlink.com 1.10,2013-03-21 07:27:00,
2013-03-21 02:42:00,25.8,10.0,30.13,NW,321,4.0,4.0,51,0.00,,,0.00,weatherlink.com 1.10,2013-03-21 07:42:00,
2013-03-21 02:57:00,26.3,9.0,30.13,NW,321,0.0,3.0,49,0.00,,,0.00,weatherlink.com 1.10,2013-03-21 07:57:00,
2013-03-21 03:12:00,26.3,10.0,30.13,NW,321,0.0,3.0,50,0.00,,,0.00,weatherlink.com 1.10,2013-03-21 08:12:00,
2013-03-21 03:27:00,24.8,15.0,30.13,NW,321,0.0,0.0,65,0.00,,,0.00,weatherlink.com 1.10,2013-03-21 08:27:00,
2013-03-21 03:42:00,24.9,14.0,30.12,NW,321,0.0,2.0,64,0.00,,,0.00,weatherlink.com 1.10,2013-03-21 08:42:00,
2013-03-21 03:58:00,25.7,15.0,30.12,NW,321,0.0,2.0,65,0.00,,,0.00,weatherlink.com 1.10,2013-03-21 08:58:00,
2013-03-21 04:13:00,24.7,17.0,30.12,NW,321,2.0,2.0,73,0.00,,,0.00,weatherlink.com 1.10,2013-03-21 09:13:00,
2013-03-21 04:28:00,23.9,19.0,30.12,NW,320,0.0,3.0,80,0.00,,,0.00,weatherlink.com 1.10,2013-03-21 09:28:00,
2013-03-21 04:43:00,24.0,16.0,30.12,NW,320,1.0,2.0,72,0.00,,,0.00,weatherlink.com 1.10,2013-03-21 09:43:00,
2013-03-21 04:58:00,25.1,14.0,30.12,NW,320,1.0,2.0,64,0.00,,,0.00,weatherlink.com 1.10,2013-03-21 09:58:00,
2013-03-21 05:13:00,26.2,13.0,30.12,NNW,327,2.0,4.0,58,0.00,,,0.00,weatherlink.com 1.10,2013-03-21 10:13:00,
2013-03-21 05:29:00,25.3,18.0,30.11,NNW,327,0.0,0.0,74,0.00,,,0.00,weatherlink.com 1.10,2013-03-21 10:29:00,
2013-03-21 05:43:00,25.6,16.0,30.11,NNW,331,0.0,3.0,67,0.00,,,0.00,weatherlink.com 1.10,2013-03-21 10:43:00,
2013-03-21 05:58:00,26.0,14.0,30.11,NNW,331,1.0,3.0,60,0.00,,,0.00,weatherlink.com 1.10,2013-03-21 10:58:00,
2013-03-21 06:13:00,26.1,13.0,30.11,NNW,331,1.0,3.0,58,0.00,,,0.00,weatherlink.com 1.10,2013-03-21 11:13:00,
2013-03-21 06:28:00,26.2,13.0,30.11,NNW,331,1.0,3.0,57,0.00,,,0.00,weatherlink.com 1.10,2013-03-21 11:28:00,
2013-03-21 06:43:00,26.2,13.0,30.11,NNW,332,1.0,3.0,57,0.00,,,0.00,weatherlink.com 1.10,2013-03-21 11:43:00,
2013-03-21 06:58:00,26.3,14.0,30.12,NNW,342,1.0,3.0,61,0.00,,,0.00,weatherlink.com 1.10,2013-03-21 11:58:00,
2013-03-21 07:13:00,26.5,12.0,30.11,ENE,67,4.0,5.0,54,0.00,,,0.00,weatherlink.com 1.10,2013-03-21 12:13:00,
2013-03-21 07:28:00,26.4,12.0,30.12,ENE,78,3.0,5.0,55,0.00,,,0.00,weatherlink.com 1.10,2013-03-21 12:28:00,
2013-03-21 07:43:00,26.3,12.0,30.12,East,88,5.0,7.0,55,0.00,,,0.00,weatherlink.com 1.10,2013-03-21 12:43:00,
2013-03-21 07:58:00,26.4,12.0,30.12,East,92,6.0,10.0,55,0.00,,,0.00,weatherlink.com 1.10,2013-03-21 12:58:00,
2013-03-21 08:13:00,26.3,12.0,30.12,East,98,6.0,9.0,54,0.00,,,0.00,weatherlink.com 1.10,2013-03-21 13:13:00,
2013-03-21 08:28:00,26.6,12.0,30.12,East,86,6.0,10.0,54,0.00,,,0.00,weatherlink.com 1.10,2013-03-21 13:28:00,
2013-03-21 08:43:00,26.6,12.0,30.11,East,86,6.0,11.0,54,0.00,,,0.00,weatherlink.com 1.10,2013-03-21 13:43:00,
2013-03-21 08:58:00,26.6,13.0,30.10,East,83,6.0,13.0,57,0.00,,,0.00,weatherlink.com 1.10,2013-03-21 13:58:00,
2013-03-21 09:13:00,27.0,12.0,30.10,ENE,77,8.0,14.0,54,0.00,,,0.00,weatherlink.com 1.10,2013-03-21 14:13:00,
2013-03-21 09:28:00,27.6,13.0,30.11,East,84,5.0,9.0,55,0.00,,,0.00,weatherlink.com 1.10,2013-03-21 14:28:00,
2013-03-21 09:43:00,27.6,13.0,30.10,ENE,76,9.0,11.0,54,0.00,,,0.00,weatherlink.com 1.10,2013-03-21 14:43:00,
2013-03-21 09:58:00,27.8,13.0,30.10,ESE,102,3.0,11.0,55,0.00,,,0.00,weatherlink.com 1.10,2013-03-21 14:58:00,
2013-03-21 10:13:00,28.0,13.0,30.11,SE,124,7.0,10.0,54,0.00,,,0.00,weatherlink.com 1.10,2013-03-21 15:13:00,
2013-03-21 10:28:00,28.7,14.0,30.11,ESE,119,7.0,10.0,54,0.00,,,0.00,weatherlink.com 1.10,2013-03-21 15:28:00,
2013-03-21 10:43:00,29.6,13.0,30.11,ESE,115,8.0,10.0,51,0.00,,,0.00,weatherlink.com 1.10,2013-03-21 15:43:00,
2013-03-21 10:58:00,30.7,13.0,30.10,ESE,109,9.0,13.0,49,0.00,,,0.00,weatherlink.com 1.10,2013-03-21 15:58:00,
2013-03-21 11:13:00,30.9,13.0,30.10,East,92,7.0,13.0,47,0.00,,,0.00,weatherlink.com 1.10,2013-03-21 16:13:00,
2013-03-21 11:28:00,31.4,14.0,30.08,East,96,11.0,13.0,48,0.00,,,0.00,weatherlink.com 1.10,2013-03-21 16:28:00,
2013-03-21 11:43:00,32.0,15.0,30.07,East,99,10.0,13.0,49,0.00,,,0.00,weatherlink.com 1.10,2013-03-21 16:43:00,
2013-03-21 11:58:00,31.5,14.0,30.07,East,96,9.0,16.0,49,0.00,,,0.00,weatherlink.com 1.10,2013-03-21 16:58:00,
2013-03-21 12:13:00,32.1,14.0,30.06,East,85,8.0,13.0,48,0.00,,,0.00,weatherlink.com 1.10,2013-03-21 17:13:00,
2013-03-21 12:29:00,32.2,14.0,30.04,East,101,8.0,14.0,48,0.00,,,0.00,weatherlink.com 1.10,2013-03-21 17:29:00,
2013-03-21 12:44:00,32.2,18.0,30.04,East,92,10.0,11.0,56,0.00,,,0.00,weatherlink.com 1.10,2013-03-21 17:44:00,
2013-03-21 12:59:00,31.4,20.0,30.04,ESE,118,5.0,11.0,63,0.00,,,0.00,weatherlink.com 1.10,2013-03-21 17:59:00,
2013-03-21 13:14:00,31.3,23.0,30.05,SSE,157,1.0,8.0,70,0.00,,,0.00,weatherlink.com 1.10,2013-03-21 18:14:00,
2013-03-21 13:29:00,29.9,24.0,30.05,SSE,155,5.0,8.0,79,0.00,,,0.00,weatherlink.com 1.10,2013-03-21 18:29:00,
2013-03-21 13:44:00,29.5,25.0,30.04,SE,135,3.0,7.0,84,0.00,,,0.00,weatherlink.com 1.10,2013-03-21 18:44:00,
2013-03-21 13:59:00,29.8,26.0,30.03,ESE,107,5.0,7.0,87,0.00,,,0.00,weatherlink.com 1.10,2013-03-21 18:59:00,
2013-03-21 14:14:00,29.6,27.0,30.02,East,92,3.0,7.0,89,0.01,,,0.01,weatherlink.com 1.10,2013-03-21 19:14:00,
2013-03-21 14:29:00,29.3,27.0,30.02,East,101,3.0,7.0,90,0.01,,,0.01,weatherlink.com 1.10,2013-03-21 19:29:00,
2013-03-21 14:44:00,29.5,28.0,30.01,ESE,105,3.0,5.0,92,0.03,,,0.03,weatherlink.com 1.10,2013-03-21 19:44:00,
2013-03-21 14:59:00,29.5,28.0,30.01,ESE,103,4.0,7.0,92,0.04,,,0.04,weatherlink.com 1.10,2013-03-21 19:59:00,
2013-03-21 15:14:00,29.7,28.0,30.00,East,97,5.0,10.0,93,0.04,,,0.05,weatherlink.com 1.10,2013-03-21 20:14:00,
2013-03-21 15:29:00,29.9,28.0,30.00,ESE,107,4.0,7.0,93,0.04,,,0.05,weatherlink.com 1.10,2013-03-21 20:29:00,
2013-03-21 15:44:00,29.8,28.0,30.00,ESE,107,4.0,7.0,93,0.03,,,0.06,weatherlink.com 1.10,2013-03-21 20:44:00,
2013-03-21 15:59:00,29.4,28.0,30.01,SSE,147,5.0,7.0,93,0.02,,,0.06,weatherlink.com 1.10,2013-03-21 20:59:00,
2013-03-21 16:14:00,29.0,27.0,30.00,ESE,121,9.0,9.0,93,0.02,,,0.07,weatherlink.com 1.10,2013-03-21 21:14:00,
2013-03-21 16:29:00,28.8,27.0,30.00,ESE,111,7.0,10.0,93,0.02,,,0.07,weatherlink.com 1.10,2013-03-21 21:29:00,
2013-03-21 16:44:00,28.5,27.0,29.99,ESE,106,9.0,10.0,94,0.03,,,0.09,weatherlink.com 1.10,2013-03-21 21:44:00,
2013-03-21 16:59:00,28.3,27.0,29.99,ESE,113,8.0,9.0,94,0.04,,,0.10,weatherlink.com 1.10,2013-03-21 21:59:00,
2013-03-21 17:14:00,28.0,27.0,29.98,ESE,115,11.0,14.0,94,0.04,,,0.11,weatherlink.com 1.10,2013-03-21 22:14:00,
2013-03-21 17:29:00,27.9,26.0,29.97,ESE,107,7.0,13.0,94,0.05,,,0.12,weatherlink.com 1.10,2013-03-21 22:29:00,
2013-03-21 17:44:00,27.9,26.0,29.97,ESE,107,7.0,10.0,94,0.04,,,0.13,weatherlink.com 1.10,2013-03-21 22:44:00,
2013-03-21 17:59:00,27.9,26.0,29.98,ESE,116,7.0,11.0,94,0.03,,,0.13,weatherlink.com 1.10,2013-03-21 22:59:00,
2013-03-21 18:14:00,27.9,27.0,29.97,ESE,114,5.0,8.0,95,0.03,,,0.14,weatherlink.com 1.10,2013-03-21 23:14:00,
2013-03-21 18:29:00,27.9,27.0,29.98,ESE,122,3.0,9.0,95,0.03,,,0.15,weatherlink.com 1.10,2013-03-21 23:29:00,
2013-03-21 18:44:00,28.0,27.0,29.98,ESE,108,5.0,12.0,95,0.04,,,0.17,weatherlink.com 1.10,2013-03-21 23:44:00,
2013-03-21 18:59:00,28.1,27.0,29.99,ESE,103,9.0,9.0,95,0.05,,,0.18,weatherlink.com 1.10,2013-03-21 23:59:00,
2013-03-21 19:14:00,28.1,27.0,29.98,ESE,102,5.0,10.0,95,0.05,,,0.19,weatherlink.com 1.10,2013-03-22 00:14:00,
2013-03-21 19:29:00,28.1,27.0,29.98,ESE,111,5.0,10.0,95,0.04,,,0.19,weatherlink.com 1.10,2013-03-22 00:29:00,
2013-03-21 19:44:00,28.1,27.0,29.98,East,95,8.0,11.0,95,0.03,,,0.20,weatherlink.com 1.10,2013-03-22 00:44:00,
2013-03-21 19:59:00,28.1,27.0,29.97,ESE,104,8.0,10.0,95,0.03,,,0.21,weatherlink.com 1.10,2013-03-22 00:59:00,
2013-03-21 20:14:00,28.1,27.0,29.97,ESE,121,5.0,10.0,95,0.03,,,0.22,weatherlink.com 1.10,2013-03-22 01:14:00,
2013-03-21 20:29:00,28.1,27.0,29.98,SE,140,3.0,12.0,95,0.03,,,0.22,weatherlink.com 1.10,2013-03-22 01:29:00,
2013-03-21 20:44:00,28.3,27.0,29.98,SE,125,6.0,10.0,95,0.01,,,0.22,weatherlink.com 1.10,2013-03-22 01:44:00,
2013-03-21 20:59:00,28.4,27.0,29.98,ESE,109,3.0,11.0,95,0.02,,,0.23,weatherlink.com 1.10,2013-03-22 01:59:00,
2013-03-21 21:14:00,28.4,27.0,29.98,SE,135,4.0,10.0,95,0.01,,,0.23,weatherlink.com 1.10,2013-03-22 02:14:00,
2013-03-21 21:29:00,28.4,27.0,29.98,SE,134,7.0,11.0,95,0.01,,,0.23,weatherlink.com 1.10,2013-03-22 02:29:00,
2013-03-21 21:44:00,28.4,27.0,29.98,SE,138,4.0,13.0,95,0.01,,,0.23,weatherlink.com 1.10,2013-03-22 02:44:00,
2013-03-21 21:59:00,28.4,27.0,29.98,SE,138,6.0,10.0,95,0.00,,,0.23,weatherlink.com 1.10,2013-03-22 02:59:00,
2013-03-21 22:14:00,28.4,27.0,29.98,SE,137,4.0,9.0,95,0.00,,,0.23,weatherlink.com 1.10,2013-03-22 03:14:00,
2013-03-21 22:29:00,28.4,27.0,29.98,SE,144,3.0,8.0,95,0.00,,,0.23,weatherlink.com 1.10,2013-03-22 03:29:00,
2013-03-21 22:44:00,28.4,27.0,29.98,SE,134,7.0,11.0,95,0.00,,,0.23,weatherlink.com 1.10,2013-03-22 03:44:00,
2013-03-21 22:59:00,28.4,27.0,29.98,SE,126,3.0,8.0,95,0.00,,,0.23,weatherlink.com 1.10,2013-03-22 03:59:00,
2013-03-21 23:14:00,28.5,27.0,29.98,SE,131,5.0,11.0,95,0.00,,,0.23,weatherlink.com 1.10,2013-03-22 04:14:00,
2013-03-21 23:29:00,28.5,27.0,29.98,SE,134,3.0,10.0,95,0.00,,,0.23,weatherlink.com 1.10,2013-03-22 04:29:00,
2013-03-21 23:44:00,28.6,27.0,29.97,SE,126,6.0,10.0,95,0.00,,,0.23,weatherlink.com 1.10,2013-03-22 04:44:00,
2013-03-21 23:59:00,28.7,28.0,29.98,ESE,123,5.0,11.0,95,0.00,,,0.23,weatherlink.com 1.10,2013-03-22 04:59:00,